BBG9252 HETB-LEBL

Flight info

Callsign BBG9252
Flight time N/A
Altitude 32000
Route NOVPA N697 MENLI DCT CVO L617 SOBAX/N0467F340 L617 TANSA DCT RUTOM DCT ORVEX DCT EPIKU DCT GINOX DCT KIFMI/N0440F280 DCT ELVOP DCT MUREN/N0453F290 M601 VERSO
Aircraft B738/M-SDE2E3FGHIRWXY/LB1

Departure

Time 2026-04-18 10:45
Airport Taba International Airport (HETB)

Arrival

Time N/A
Airport Josep Tarradellas Barcelona-El Prat Airport (LEBL)
Time Latitude Longitude Altitude Speed Heading
2026-04-18 10:13 29.59479 34.77705 2384 ft 0 kts 278°
2026-04-18 10:34 29.59478 34.77710 2402 ft 3 kts 278°
2026-04-18 10:34 29.59473 34.77740 2407 ft 4 kts 286°
2026-04-18 10:34 29.59464 34.77769 2405 ft 4 kts 296°
2026-04-18 10:35 29.59459 34.77780 2406 ft 1 kts 298°
2026-04-18 10:39 29.59473 34.77758 2408 ft 5 kts 336°
2026-04-18 10:40 29.59530 34.77779 2409 ft 16 kts 18°
2026-04-18 10:40 29.59620 34.77822 2403 ft 13 kts 69°
2026-04-18 10:40 29.59614 34.77923 2409 ft 13 kts 100°
2026-04-18 10:40 29.59598 34.78021 2411 ft 12 kts 99°
2026-04-18 10:41 29.59586 34.78117 2415 ft 12 kts 98°
2026-04-18 10:41 29.59574 34.78211 2419 ft 12 kts 99°
2026-04-18 10:41 29.59560 34.78304 2421 ft 12 kts 99°
2026-04-18 10:41 29.59584 34.78407 2417 ft 16 kts 47°
2026-04-18 10:42 29.59676 34.78501 2417 ft 19 kts 42°
2026-04-18 10:42 29.59773 34.78601 2421 ft 19 kts 41°
2026-04-18 10:42 29.59878 34.78709 2420 ft 21 kts 41°
2026-04-18 10:42 29.59987 34.78820 2422 ft 21 kts 41°
2026-04-18 10:43 29.60100 34.78934 2425 ft 22 kts 41°
2026-04-18 10:43 29.60199 34.79059 2424 ft 21 kts 83°
2026-04-18 10:43 29.60152 34.79159 2422 ft 7 kts 127°
2026-04-18 10:43 29.60108 34.79165 2422 ft 9 kts 214°
2026-04-18 10:44 29.60062 34.79117 2424 ft 11 kts 222°
2026-04-18 10:44 29.59830 34.78878 2421 ft 78 kts 221°
2026-04-18 10:44 29.59269 34.78306 2422 ft 137 kts 221°
2026-04-18 10:44 29.58431 34.77452 2456 ft 182 kts 221°
2026-04-18 10:45 29.57440 34.76431 2914 ft 193 kts 219°
2026-04-18 10:45 29.56434 34.75436 3706 ft 185 kts 212°
2026-04-18 10:45 29.55350 34.74601 4418 ft 192 kts 211°
2026-04-18 10:45 29.54240 34.73763 5031 ft 187 kts 211°
2026-04-18 10:46 29.53172 34.72956 5697 ft 182 kts 211°
2026-04-18 10:46 29.52126 34.72146 6257 ft 181 kts 211°
2026-04-18 10:46 29.51042 34.71492 6792 ft 176 kts 201°
2026-04-18 10:46 29.49837 34.71219 7299 ft 177 kts 182°
2026-04-18 10:47 29.48608 34.71431 7693 ft 186 kts 168°
2026-04-18 10:47 29.47361 34.71918 8171 ft 186 kts 163°
2026-04-18 10:47 29.46142 34.72429 8567 ft 188 kts 171°
2026-04-18 10:47 29.44826 34.72792 8724 ft 206 kts 173°
2026-04-18 10:48 29.43355 34.73116 8834 ft 223 kts 175°
2026-04-18 10:48 29.41852 34.73393 9578 ft 215 kts 177°
2026-04-18 10:48 29.40307 34.73636 9759 ft 235 kts 178°
2026-04-18 10:48 29.38626 34.73877 9935 ft 254 kts 178°
2026-04-18 10:49 29.36832 34.74139 10341 ft 263 kts 178°
2026-04-18 10:49 29.34967 34.74444 10422 ft 275 kts 174°
2026-04-18 10:49 29.33093 34.74933 10425 ft 278 kts 171°
2026-04-18 10:49 29.31277 34.75494 10421 ft 280 kts 170°
2026-04-18 10:50 29.29397 34.76061 10417 ft 278 kts 171°
2026-04-18 10:50 29.27509 34.76573 10450 ft 284 kts 175°
2026-04-18 10:50 29.25499 34.76697 10572 ft 295 kts 193°
2026-04-18 10:50 29.23547 34.75863 10730 ft 307 kts 208°
2026-04-18 10:51 29.21603 34.74687 10826 ft 324 kts 208°
2026-04-18 10:51 29.19502 34.73589 10936 ft 340 kts 203°
2026-04-18 10:51 29.17218 34.72691 11056 ft 354 kts 200°
2026-04-18 10:51 29.14846 34.71830 11371 ft 360 kts 200°
2026-04-18 10:52 29.12608 34.70975 11796 ft 361 kts 201°
2026-04-18 10:52 29.10243 34.70015 12277 ft 362 kts 203°
2026-04-18 10:52 29.07938 34.68859 12737 ft 362 kts 208°
2026-04-18 10:52 29.05865 34.67254 13123 ft 364 kts 228°
2026-04-18 10:53 29.04819 34.64634 13566 ft 372 kts 261°
2026-04-18 10:53 29.05083 34.61676 14043 ft 380 kts 279°
2026-04-18 10:53 29.05744 34.58726 14416 ft 384 kts 279°
2026-04-18 10:53 29.06400 34.55769 14773 ft 388 kts 280°
2026-04-18 10:54 29.07132 34.52778 15176 ft 390 kts 282°
2026-04-18 10:54 29.07935 34.49807 15551 ft 393 kts 283°
2026-04-18 10:54 29.08810 34.46824 15913 ft 397 kts 284°
2026-04-18 10:54 29.09741 34.43858 16333 ft 398 kts 285°
2026-04-18 10:55 29.10711 34.40891 16787 ft 398 kts 285°
2026-04-18 10:55 29.11667 34.37927 17127 ft 400 kts 285°
2026-04-18 10:55 29.12607 34.34911 17431 ft 403 kts 284°
2026-04-18 10:55 29.13512 34.31915 17816 ft 404 kts 284°
2026-04-18 10:56 29.14422 34.28835 18234 ft 404 kts 283°
2026-04-18 10:56 29.15301 34.25820 18536 ft 405 kts 283°
2026-04-18 10:56 29.16189 34.22757 18821 ft 407 kts 283°
2026-04-18 10:56 29.17083 34.19663 19052 ft 411 kts 283°
2026-04-18 10:57 29.17984 34.16549 19434 ft 410 kts 283°
2026-04-18 10:57 29.18875 34.13476 19739 ft 411 kts 283°
2026-04-18 10:57 29.19777 34.10364 20065 ft 412 kts 283°
2026-04-18 10:57 29.20677 34.07256 20384 ft 412 kts 283°
2026-04-18 10:58 29.21581 34.04128 20697 ft 413 kts 283°
2026-04-18 10:58 29.22483 34.01008 20977 ft 415 kts 283°
2026-04-18 10:58 29.23389 33.97868 21263 ft 416 kts 283°
2026-04-18 10:58 29.24297 33.94720 21536 ft 417 kts 283°
2026-04-18 10:59 29.25208 33.91559 21807 ft 419 kts 283°
2026-04-18 10:59 29.26121 33.88389 22037 ft 420 kts 283°
2026-04-18 10:59 29.27038 33.85207 22311 ft 421 kts 283°
2026-04-18 10:59 29.27955 33.82020 22604 ft 421 kts 283°
2026-04-18 11:00 29.28871 33.78830 22835 ft 423 kts 283°
2026-04-18 11:00 29.29792 33.75622 23052 ft 425 kts 283°
2026-04-18 11:00 29.30715 33.72403 23300 ft 426 kts 283°
2026-04-18 11:00 29.31640 33.69175 23534 ft 426 kts 283°
2026-04-18 11:01 29.32561 33.65954 23744 ft 427 kts 284°
2026-04-18 11:01 29.33487 33.62717 23938 ft 427 kts 283°
2026-04-18 11:01 29.34098 33.60575 24057 ft 428 kts 284°
2026-04-18 11:02 29.35950 33.54082 24450 ft 429 kts 283°
2026-04-18 11:02 29.36880 33.50818 24624 ft 430 kts 283°
2026-04-18 11:02 29.37806 33.47563 24794 ft 431 kts 283°
2026-04-18 11:02 29.38733 33.44301 24980 ft 431 kts 283°
2026-04-18 11:03 29.39664 33.41020 25186 ft 432 kts 284°
2026-04-18 11:03 29.40595 33.37737 25339 ft 433 kts 284°
2026-04-18 11:03 29.41524 33.34456 25503 ft 434 kts 284°
2026-04-18 11:03 29.42456 33.31161 25687 ft 434 kts 283°
2026-04-18 11:04 29.43386 33.27873 25865 ft 434 kts 283°
2026-04-18 11:04 29.44316 33.24585 26061 ft 434 kts 283°
2026-04-18 11:04 29.45249 33.21276 26241 ft 434 kts 283°
2026-04-18 11:04 29.46173 33.17997 26522 ft 432 kts 283°
2026-04-18 11:05 29.47096 33.14720 26882 ft 429 kts 283°
2026-04-18 11:05 29.48008 33.11481 27221 ft 425 kts 283°
2026-04-18 11:05 29.48888 33.08349 27489 ft 424 kts 283°
2026-04-18 11:05 29.49790 33.05134 27745 ft 423 kts 283°
2026-04-18 11:06 29.50690 33.01921 28030 ft 422 kts 283°
2026-04-18 11:06 29.51573 32.98769 28359 ft 419 kts 283°
2026-04-18 11:06 29.52463 32.95591 28685 ft 416 kts 283°
2026-04-18 11:06 29.53343 32.92440 28955 ft 415 kts 283°
2026-04-18 11:07 29.54224 32.89283 29220 ft 414 kts 283°
2026-04-18 11:07 29.55110 32.86104 29545 ft 412 kts 283°
2026-04-18 11:07 29.55969 32.83019 29880 ft 409 kts 283°
2026-04-18 11:07 29.56835 32.79908 30128 ft 408 kts 283°
2026-04-18 11:08 29.57689 32.76836 30355 ft 407 kts 283°
2026-04-18 11:08 29.58547 32.73744 30586 ft 406 kts 283°
2026-04-18 11:08 29.59405 32.70653 30805 ft 404 kts 283°
2026-04-18 11:08 29.60248 32.67577 30983 ft 404 kts 282°
2026-04-18 11:09 29.61021 32.64472 31121 ft 404 kts 281°
2026-04-18 11:09 29.61731 32.61352 31284 ft 403 kts 279°
2026-04-18 11:09 29.62410 32.58234 31487 ft 402 kts 279°
2026-04-18 11:09 29.63084 32.55120 31720 ft 400 kts 279°
2026-04-18 11:10 29.63760 32.52025 31855 ft 401 kts 279°
2026-04-18 11:10 29.64447 32.48915 31852 ft 402 kts 279°
2026-04-18 11:10 29.65838 32.42710 31865 ft 399 kts 280°
2026-04-18 11:11 29.67223 32.36559 31855 ft 397 kts 279°
2026-04-18 11:11 29.68600 32.30432 31859 ft 395 kts 279°